[[{"header":{"parameterUnit":"m.s-1","parameterCategory":1,"la1":30.2991,"la2":30.254,"lo1":-89.0895,"lo2":-89.0444,"dy":0.0017,"dx":0.0017,"nx":28,"ny":28,"refTime":"2025-07-18T03:00:00:Z","depth":0,"parameterNumber":2,"parameterNumberName":"U-component_of_WINDS"},"data":[0,0,0,0,0,0,0,0,0,0,0,0,0,0,0,0,0,0,0,0,0,0,0,0,0,0,0,0,0,0,0,0,0,0,0,0,0,0,0,0,0,0,0,0,0,0,0,0,0,0,0,0,0,0,0,0,0,0,1.2024,1.2024,0,1.2019,1.2019,1.2018,1.1979,1.1978,1.1977,1.1977,1.1972,1.1973,1.1974,0,0,0,0,0,0,0,0,0,0,0,0,0,1.2002,1.2003,1.2024,1.2024,1.2024,1.2019,1.2019,1.2018,1.198,1.1978,1.1977,1.1976,1.1972,1.1973,1.1974,0,0,0,0,0,0,0,0,0,0,0,0,0,1.2006,1.2003,1.2024,1.2004,1.2002,1.2019,1.2019,1.2018,1.198,1.1978,1.1977,1.1976,1.1972,1.1973,1.1974,1.201,0,0,1.1977,1.1978,0,0,0,0,0,0,0,0,1.2006,1.2007,1.2007,1.2005,1.2003,1.1998,1.2009,1.2016,1.198,1.1988,1.1977,1.1975,1.1982,1.1982,1.1984,1.2009,1.2009,1.1977,1.1978,1.1979,1.1979,0,0,0,0,0,0,0,1.2006,1.2007,1.2022,1.2007,1.2005,1.1996,1.1994,1.201,1.1993,1.1988,1.1985,1.1984,1.1981,1.1983,1.1984,1.2009,1.1977,1.1978,1.1979,1.198,1.2063,1.2064,0,0,0,0,0,0,1.2008,1.2007,1.2022,1.2022,1.2001,1.1997,1.1996,1.2001,1.1993,1.199,1.1986,1.1983,1.1982,1.1983,1.1984,1.2024,1.1979,1.198,1.198,1.2061,1.2063,1.2065,0,0,0,0,0,0,1.2008,1.201,1.2022,1.2014,1.2014,1.1999,1.2005,1.2002,1.2004,1.1992,1.1989,1.1991,1.1981,1.1982,1.2003,1.2024,1.198,1.1981,1.206,1.2062,1.2064,1.2107,0,0,0,0,0,0,1.2007,1.201,1.2023,1.2014,1.2015,1.2042,1.2007,1.2003,1.2006,1.2002,1.1996,1.1994,1.198,1.2002,1.2004,1.2025,1.1982,1.2058,1.2061,1.2063,1.2104,1.211,1.2116,0,0,0,0,0,1.2007,1.2036,1.2024,1.2026,1.2031,1.2043,1.2044,1.2027,1.2008,1.2022,1.2013,1.1994,1.2021,1.2004,1.2007,1.2028,1.2056,1.206,1.2063,1.2101,1.2109,1.2116,0,0,0,0,0,0,1.2048,1.2034,1.2021,1.2048,1.2047,1.2037,1.2053,1.2036,1.2041,1.2037,1.2016,1.2015,1.2039,1.2036,1.2017,1.2062,1.2035,1.204,1.2063,1.2071,1.2077,1.2077,1.1983,0,0,0,0,0,1.2061,1.2071,1.2059,1.2084,1.2084,1.2069,1.2073,1.206,1.2058,1.2058,1.2051,1.2051,1.2059,1.2065,1.2072,1.2103,1.2101,1.2119,1.2125,1.213,1.2134,1.215,1.2157,1.2076,1.2076,1.2076,0,0,1.2086,1.208,1.2088,1.2092,1.209,1.2101,1.2069,1.2082,1.2091,1.206,1.2079,1.2075,1.2072,1.2099,1.211,1.2096,1.2156,1.2135,1.2139,1.214,1.2154,1.2162,1.2169,1.2078,1.2078,1.2078,0,0,1.2139,1.2135,1.2155,1.2154,1.215,1.214,1.2145,1.2137,1.2132,1.2151,1.2128,1.2138,1.2153,1.2152,1.2154,1.2206,1.2188,1.2209,1.2241,1.2257,1.2263,1.2269,1.2287,1.2294,1.2212,1.2213,1.2213,0,1.2171,1.2187,1.2168,1.2183,1.2185,1.2158,1.2178,1.2178,1.2177,1.2179,1.2164,1.2182,1.2179,1.2204,1.2216,1.2219,1.2224,1.2209,1.2264,1.2269,1.2274,1.2291,1.2298,1.2215,1.2215,1.2214,1.2214,0,1.2227,1.2238,1.2255,1.2254,1.2259,1.2277,1.226,1.2267,1.2254,1.2245,1.2265,1.226,1.2265,1.227,1.2258,1.2294,1.2285,1.2268,1.224,1.2285,1.23,1.2307,1.2219,1.2218,1.2217,1.2216,0,0,1.2305,1.2293,1.23,1.2299,1.2293,1.2302,1.2318,1.2323,1.2329,1.2329,1.2342,1.2356,1.2339,1.2341,1.2328,1.2342,1.2382,1.2322,1.2321,1.2333,1.2421,1.2434,1.2442,1.2371,1.2372,1.2373,1.2421,0,1.2355,1.2382,1.2365,1.2394,1.2405,1.2379,1.2393,1.2391,1.2383,1.2391,1.2383,1.2392,1.237,1.237,1.2383,1.2375,1.24,1.2371,1.2383,1.2383,1.2383,1.245,1.2464,1.251,1.2427,1.2428,1.2429,0,1.2416,1.2419,1.2449,1.2441,1.2444,1.2457,1.246,1.2468,1.2465,1.2459,1.2461,1.2444,1.246,1.2434,1.2455,1.2436,1.2439,1.2436,1.2438,1.2437,1.2408,1.2451,1.2524,1.2531,1.2438,1.2438,1.2437,0,1.247,1.2481,1.25,1.25,1.2491,1.2501,1.2497,1.2493,1.2497,1.2499,1.2502,1.2506,1.2509,1.2513,1.2498,1.248,1.2521,1.2494,1.2516,1.2517,1.2525,1.2525,1.2599,1.2529,1.2529,1.2529,1.2529,0,1.2526,1.2546,1.2524,1.2535,1.2556,1.2537,1.2559,1.2553,1.2549,1.256,1.2538,1.2548,1.2528,1.2537,1.2526,1.2545,1.2546,1.2541,1.2538,1.2543,1.2543,1.2545,1.2541,1.2531,1.253,1.253,1.253,0,1.2589,1.2575,1.2594,1.2584,1.2582,1.2598,1.2589,1.2599,1.259,1.2604,1.2606,1.2592,1.26,1.2586,1.2594,1.2586,1.2612,1.2604,1.2613,1.261,1.2633,1.2631,1.271,1.2719,1.2644,1.2645,1.2645,0,1.2626,1.264,1.2631,1.2636,1.2634,1.2643,1.2646,1.2628,1.2632,1.263,1.2641,1.2648,1.2652,1.2668,1.2658,1.2663,1.2655,1.2683,1.2656,1.266,1.2655,1.2654,1.2655,1.2688,1.2689,1.269,1.269,0,1.2693,1.2685,1.269,1.2693,1.2698,1.27,1.27,1.2705,1.2686,1.2693,1.2701,1.2704,1.2711,1.2718,1.2721,1.2718,1.2701,1.2699,1.2704,1.2709,1.2713,1.271,1.2627,1.2697,1.2696,1.2696,1.2695,1.2695,1.2743,1.2754,1.2749,1.2756,1.2754,1.2755,1.2764,1.2756,1.2762,1.2766,1.2755,1.2766,1.2763,1.2765,1.2764,1.2772,1.276,1.2768,1.277,1.2772,1.2775,1.2712,1.2773,1.2773,1.2772,1.2772,1.2772,0,1.2808,1.2803,1.281,1.281,1.2816,1.2799,1.2798,1.2804,1.2813,1.2812,1.2816,1.2826,1.2832,1.2823,1.2828,1.2837,1.2829,1.2839,1.2837,1.2837,1.2786,1.278,1.2845,1.2845,1.2845,1.2845,1.2845,1.2845,1.2842,1.286,1.2851,1.2868,1.2863,1.2873,1.2874,1.2875,1.2873,1.2885,1.289,1.2884,1.2879,1.2883,1.2889,1.2886,1.2889,1.2901,1.2895,1.2848,1.2841,1.2834,1.2829,1.2902,1.2902,1.2945,1.2946,1.2946]},{"header":{"parameterUnit":"m.s-1","parameterCategory":1,"la1":30.2991,"la2":30.254,"lo1":-89.0895,"lo2":-89.0444,"dy":0.0017,"dx":0.0017,"nx":28,"ny":28,"refTime":"2025-07-18T03:00:00:Z","depth":0,"parameterNumber":3,"parameterNumberName":"V-component_of_WINDS"},"data":[0,0,0,0,0,0,0,0,0,0,0,0,0,0,0,0,0,0,0,0,0,0,0,0,0,0,0,0,0,0,0,0,0,0,0,0,0,0,0,0,0,0,0,0,0,0,0,0,0,0,0,0,0,0,0,0,0,0,5.3247,5.3248,0,5.3346,5.3347,5.3348,5.3361,5.336,5.3359,5.3358,5.3453,5.3457,5.346,0,0,0,0,0,0,0,0,0,0,0,0,0,5.3063,5.3066,5.3247,5.3248,5.3249,5.3345,5.3347,5.3348,5.3361,5.336,5.3359,5.3358,5.3452,5.3456,5.346,0,0,0,0,0,0,0,0,0,0,0,0,0,5.315,5.3067,5.3246,5.3267,5.327,5.3345,5.3347,5.3348,5.3361,5.336,5.3358,5.3357,5.3451,5.3456,5.3461,5.352,0,0,5.3476,5.3479,0,0,0,0,0,0,0,0,5.3145,5.3157,5.3263,5.3266,5.3269,5.334,5.3317,5.3406,5.3362,5.3326,5.3358,5.3356,5.3416,5.3424,5.3445,5.3525,5.3529,5.3477,5.348,5.3482,5.3484,0,0,0,0,0,0,0,5.3139,5.3153,5.3286,5.3264,5.3268,5.327,5.3281,5.3334,5.3378,5.3329,5.3331,5.3342,5.3418,5.3441,5.3448,5.353,5.3477,5.3481,5.3484,5.3486,5.3663,5.3665,0,0,0,0,0,0,5.313,5.3148,5.3282,5.3289,5.3203,5.3274,5.3286,5.3318,5.3377,5.3385,5.3344,5.3343,5.3432,5.3442,5.3451,5.3525,5.3482,5.3487,5.349,5.3661,5.3663,5.3665,0,0,0,0,0,0,5.3126,5.3142,5.3278,5.3219,5.3236,5.3279,5.3315,5.3321,5.3344,5.3388,5.3395,5.3359,5.3432,5.3444,5.3503,5.3528,5.3489,5.3494,5.366,5.3662,5.3664,5.3672,0,0,0,0,0,0,5.3121,5.3141,5.3165,5.3219,5.3239,5.3331,5.3316,5.3324,5.3354,5.3353,5.3405,5.3412,5.3432,5.3496,5.3508,5.3535,5.3498,5.3657,5.3661,5.3664,5.367,5.3675,5.3679,0,0,0,0,0,5.3114,5.3162,5.3166,5.3182,5.3271,5.3332,5.3343,5.3367,5.3355,5.3379,5.3408,5.341,5.3524,5.3502,5.3516,5.3544,5.3656,5.366,5.3663,5.3668,5.3674,5.3679,0,0,0,0,0,0,5.3106,5.3169,5.3175,5.3241,5.3282,5.3334,5.3365,5.3372,5.3415,5.3413,5.3438,5.345,5.3508,5.3532,5.3506,5.3605,5.3589,5.3595,5.3587,5.3593,5.3597,5.359,5.3502,0,0,0,0,0,5.3113,5.316,5.3211,5.3264,5.3285,5.3321,5.3349,5.3364,5.3406,5.3422,5.3455,5.3494,5.3539,5.3567,5.361,5.3674,5.3685,5.37,5.3704,5.3708,5.3713,5.3749,5.3756,5.3677,5.3677,5.3677,0,0,5.3126,5.3166,5.3193,5.3264,5.3297,5.3343,5.3336,5.3384,5.3418,5.3429,5.3488,5.3513,5.3558,5.362,5.3649,5.3642,5.3738,5.3713,5.3715,5.3719,5.3753,5.3761,5.3767,5.368,5.3679,5.3679,0,0,5.3173,5.3208,5.3257,5.3291,5.3342,5.3367,5.3378,5.3431,5.3449,5.3509,5.3518,5.3558,5.3634,5.3666,5.3692,5.3753,5.3757,5.3766,5.3789,5.3823,5.3829,5.3835,5.3857,5.3864,5.3771,5.3771,5.3771,0,5.3182,5.3254,5.3281,5.3331,5.3361,5.3376,5.3425,5.3455,5.3517,5.3537,5.3529,5.3626,5.3657,5.3727,5.3742,5.3762,5.3776,5.376,5.3827,5.3833,5.3838,5.3859,5.3867,5.3772,5.3772,5.3772,5.3772,0,5.3262,5.3312,5.3345,5.3408,5.3442,5.349,5.3523,5.3555,5.3567,5.3592,5.3652,5.3691,5.3742,5.376,5.3771,5.3832,5.3826,5.3822,5.3806,5.3846,5.3866,5.3875,5.3773,5.3773,5.3773,5.3773,0,0,5.3306,5.3385,5.3396,5.3425,5.3483,5.3521,5.357,5.3623,5.3649,5.3691,5.3732,5.3797,5.3795,5.3824,5.3839,5.387,5.3916,5.3862,5.3863,5.3871,5.3984,5.3987,5.3996,5.3919,5.392,5.3922,5.3981,0,5.336,5.3451,5.3477,5.3553,5.3599,5.3614,5.3656,5.3696,5.372,5.3761,5.3788,5.3834,5.3826,5.3845,5.3875,5.3904,5.3939,5.39,5.3956,5.3958,5.3945,5.4007,5.4009,5.4063,5.3989,5.399,5.3991,0,5.3435,5.3482,5.3563,5.3616,5.3636,5.3675,5.3726,5.3765,5.381,5.3825,5.386,5.3873,5.3923,5.3905,5.3974,5.3947,5.3972,5.3989,5.3992,5.3998,5.3977,5.4014,5.4081,5.4089,5.4004,5.4003,5.4002,0,5.346,5.3542,5.3602,5.3625,5.3689,5.3716,5.3743,5.3786,5.3817,5.386,5.388,5.3929,5.3955,5.3991,5.4017,5.4001,5.4084,5.4068,5.4098,5.4097,5.4114,5.4112,5.4185,5.413,5.413,5.413,5.413,0,5.3517,5.3566,5.3614,5.365,5.3705,5.3734,5.3787,5.3814,5.3853,5.3894,5.3909,5.3946,5.3978,5.4019,5.4039,5.4094,5.4105,5.4118,5.4123,5.4117,5.4116,5.4133,5.413,5.4132,5.4131,5.4131,5.4131,0,5.3553,5.3587,5.3653,5.3709,5.3724,5.3762,5.3808,5.3843,5.3869,5.3921,5.3934,5.3974,5.4024,5.4053,5.4115,5.4128,5.4189,5.4192,5.4174,5.4176,5.4205,5.4202,5.4291,5.4305,5.424,5.4241,5.4241,0,5.3588,5.3626,5.3687,5.3716,5.3745,5.3792,5.3824,5.3854,5.3886,5.3941,5.3969,5.402,5.4063,5.4141,5.4174,5.4222,5.4226,5.4255,5.4233,5.4226,5.4227,5.4224,5.4228,5.4258,5.4258,5.4259,5.4259,0,5.3645,5.3661,5.3707,5.376,5.3799,5.3841,5.3883,5.3906,5.3942,5.3978,5.403,5.4063,5.4128,5.4178,5.4229,5.4255,5.4263,5.4266,5.4275,5.4269,5.4258,5.4265,5.4184,5.4263,5.4263,5.4263,5.4262,5.4262,5.3682,5.3717,5.3766,5.3817,5.3852,5.3892,5.3928,5.3959,5.4004,5.4061,5.4075,5.413,5.4174,5.4243,5.4271,5.4313,5.4308,5.4322,5.4325,5.4328,5.4329,5.4252,5.4322,5.4322,5.4322,5.4322,5.4322,0,5.374,5.3773,5.382,5.388,5.392,5.3927,5.3973,5.4006,5.4055,5.4096,5.4139,5.4199,5.4248,5.4286,5.4336,5.4363,5.4368,5.4375,5.4373,5.4379,5.433,5.4317,5.4371,5.4371,5.4371,5.4371,5.4371,5.437,5.3775,5.3835,5.3857,5.3934,5.3966,5.4022,5.4048,5.4084,5.4117,5.4185,5.4227,5.4252,5.4291,5.4345,5.439,5.44,5.4417,5.4424,5.4434,5.4388,5.4383,5.4378,5.4366,5.4428,5.4428,5.448,5.448,5.4481]}]]